Regional Weather Roundup
Issued by NWS Upton, NY

Current Version | Previous Version | Graphics & Text | Print | Product List | Glossary Off
Versions: 1 2 3 4 5 6 7 8 9 10 11 12 13 14 15 16 17 18 19 20 21 22 23 24 25 26 27 28 29 30 31 32 33 34 35 36 37 38 39 40 41 42 43 44 45 46 47 48 49 50

000
ASUS41 KOKX 191305
RWROKX

REGIONAL WEATHER ROUNDUP
NATIONAL WEATHER SERVICE NEW YORK NY
900 AM EDT FRI SEP 19 2014

NOTE: "FAIR" INDICATES FEW OR NO CLOUDS BELOW 12,000 FEET WITH NO
SIGNIFICANT WEATHER AND/OR OBSTRUCTIONS TO VISIBILITY.

NYZ071-072-176-178-NJZ106-104-191400-
NEW YORK CITY METRO AREA


CITY           SKY/WX    TMP DP  RH WIND       PRES   REMARKS
CENTRAL PARK   SUNNY     56  37  49 E13       30.34R
LAGUARDIA APRT MOSUNNY   57  42  57 NE16G22   30.32R
KENNEDY INTL   MOSUNNY   59  40  49 NE12      30.32R
NEWARK/LIBERTY MOSUNNY   57  39  51 NE16      30.31R
BRNX BOT. GARD   N/A     55  37  50 N18       30.32F
TETERBORO      SUNNY     57  35  43 NE12G18   30.31R
$$

NYZ177-179-078>081-191400-
LONG ISLAND NEW YORK

CITY           SKY/WX    TMP DP  RH WIND       PRES   REMARKS
FARMINGDALE    SUNNY     57  44  62 NE10      30.31R
ISLIP          PTSUNNY   57  45  64 NE14      30.30R
SHIRLEY        MOSUNNY   57  45  64 NE8G18    30.32R
WESTHAMPTON    MOSUNNY   59  45  59 NE10G21   30.33R
MONTAUK POINT    N/A     56  45  66 NE12G17   30.33R
$$

NYZ052-065-067-191400-
HUDSON VALLEY

CITY           SKY/WX    TMP DP  RH WIND       PRES   REMARKS
WHITE PLAINS   MOSUNNY   52  37  56 NE10      30.33R
NEWBURGH       MOSUNNY   50  41  71 E12       30.35R
MONTGOMERY     CLOUDY    52  39  61 NE12      30.35R
POUGHKEEPSIE   SUNNY     51  39  63 N8        30.35R
ALBANY         MOSUNNY   46  34  62 N9        30.39R
$$

NJZ001-105-106-008-010-013-015-019>022-104-191400-
NEW JERSEY

CITY           SKY/WX    TMP DP  RH WIND       PRES   REMARKS
NEWARK/LIBERTY MOSUNNY   57  39  51 NE16      30.31R
TETERBORO      SUNNY     57  35  43 NE12G18   30.31R
CALDWELL       MOSUNNY   54  44  69 NE10      30.33R
MORRISTOWN     MOSUNNY   54  48  82 NE8       30.32R
SOMERVILLE     PTSUNNY   56  46  69 NE8       30.30R
LINDEN         FAIR      62  43  49 NE14      30.33R
SUSSEX         CLOUDY    51  40  65 N12       30.34R
ANDOVER          N/A     50  43  77 VRB5      30.33R
TRENTON        CLOUDY    56  48  74 NE10      30.29R
MILLVILLE      SUNNY     62  54  74 NE13      30.25R
ATLANTIC CITY  CLOUDY    62  57  83 NE8       30.25R
WRIGHTSTOWN    MOSUNNY   58  53  80 NE14      30.26R
TOMS RIVER     CLOUDY    61  52  72 NE13G18   30.28R
BELMAR         CLOUDY    57  45  62 NE12G20   30.29R
$$

PAZ047>061-062-071-191400-
EASTERN PENNSYLVANIA

CITY           SKY/WX    TMP DP  RH WIND       PRES   REMARKS
PHILADELPHIA   MOSUNNY   61  50  67 NE13      30.28R
ALLENTOWN      SUNNY     55  47  74 E9        30.31R
SCRANTON       SUNNY     50  41  71 CALM      30.31R
$$

CTZ002-004>006-009-010-012-RIZ004-006-007-MAZ004-011-015-191400-
SOUTHERN NEW ENGLAND
 IN CT

CITY           SKY/WX    TMP DP  RH WIND       PRES   REMARKS
BRADLEY INTL   MOSUNNY   51  36  56 N13       30.36R
HARTFORD       SUNNY     50  39  66 N9        30.36R
DANBURY        SUNNY     51  37  58 NE9       30.35R
WTRBRY/OXFORD  MOSUNNY   48  36  61 E12G18    30.35R
BRIDGEPORT     PTSUNNY   54  40  59 NE13      30.34R
MERIDEN        SUNNY     51  38  60 N13       30.35R
NEW HAVEN      MOSUNNY   55  39  54 N12       30.34R
CHESTER        FAIR      48  37  66 NE7       30.33R
GROTON         MOSUNNY   54  39  57 NE10G20   30.33R
WILLIMANTIC    SUNNY     51  36  56 NE10      30.35R

 IN RI

CITY           SKY/WX    TMP DP  RH WIND       PRES   REMARKS
PROVIDENCE     MOSUNNY   52  36  54 N17       30.35R
BLOCK ISLAND   CLOUDY    55  41  58 NE15G23   30.32R
WESTERLY       PTSUNNY   54  39  57 NE9G18    30.34R

 IN MA

CITY           SKY/WX    TMP DP  RH WIND       PRES   REMARKS
BOSTON         MOSUNNY   51  34  52 N12       30.37R
WORCESTER      SUNNY     45  33  63 NE7       30.35R
WESTFIELD      SUNNY     49  35  58 NE14      30.36R
PROVINCETOWN   MOSUNNY   54  36  50 NE15G21   30.35R
NANTUCKET      SUNNY     58  41  53 N21G28    30.30R
$$

ANZ330-335-338-340-345-350-353-355-191400-
COASTAL MARINE OBSERVATIONS


STATION/POSITION TIME  SKY/WX   TEMP    WIND        PRES    VSBY  WAVE
                                AIR SEA DIR/SP/G                  HT/PER
                 (UTC)          (F)     (DEG/KT/KT) (MB)    (MI)  (FT/S)
NY HARB ENTRANCE 1300            59 70   40/ 17/ 21 1025.7          4/ 5
4S FIRE IS       1300               69                N/A           4/ 4
23SW MTP         1300                                 N/A           5/ 5
HUDSON CANYON    1300            66 72   50/ 21/ 25 1022.9          5/ 5
EXECUTION ROCKS  1300            56 70   40/ 17/ 23   N/A
WESTERN LI SOUND 1200            55      50/ 16/ 19   N/A           2/ 5
CENTRAL LI SOUND 1200            54 70   50/ 17/ 21   N/A           2/ 3
EASTERN LI SOUND 1200            57 67   50/ 14/ 19   N/A
ROBBINS REEF     1300            56      50/ 15/ 18 1025.0
$$


>>>>>>>>>>>>>>>>>>>>>>>>>>>> KEY <<<<<<<<<<<<<<<<<<<<<<<<<<<
>                                                          <
>     SKY/WX - SKY CONDITION/PRESENT WEATHER               <
>     TMP    - TEMPERATURE IN FAHRENHEIT                   <
>     DP     - DEWPOINT IN FAHRENHEIT                      <
>     RH     - RELATIVE HUMIDITY IN PERCENT                <
>     WIND   - DIRECTION AND SPEED IN MPH                  <
>     PRES   - MEAN SEA LEVEL PRESSURE IN INCHES OF HG     <
>     WCI    - WIND CHILL INDEX                            <
>     VSB    - VISIBILITY IN MILES                         <
>     HX     - HEAT INDEX                                  <
>     TC     - TEMPERATURE IN CELSIUS                      <
>     VRB    - VARIABLE WIND DIRECTION                     <
>                                                          <
>>>>>>>>>>>>>>>>>>>>>>>>>>>> KEY <<<<<<<<<<<<<<<<<<<<<<<<<<<





USA.gov is the U.S. government's official web portal to all federal, state and local government web resources and services.